Home > Time Zones > World Clock > Weather > Germany > Ulm > Past weeks

Flag for Germany Weather past 2 weeks in Ulm, Baden-Württemberg, Germany

Now
57 °F

Light rain. Passing clouds.


Feels Like: 57 °F
Forecast: 44 / 60 °F
Wind: 5 mph from West

Location: Laupheim Airport

Current Time: Oct 21, 2014 at 1:47:38 AM

Latest Report: Oct 21, 2014 at 1:20 AM


Visibility: 5 mi

Pressure: 30.01 "Hg

Humidity: 100%

Dew point: 57 °F

Location of UlmLocation

Historic Weather in Ulm — Graph

°F

Ulm temperature yesterday

Maximum temperature yesterday: 68 °F (at 2:20 PM)
Minimum temperature yesterday: 55 °F (at 7:20 AM)
Average temperature yesterday: 61 °F

Past Weeks' High & Low Weather Summary

 TemperatureHumidityPressure
High77 °F (Oct 9, 2:20 PM)100% (Oct 6, 3:20 AM)30.24 "Hg (Oct 6, 3:20 AM)
Low43 °F (Oct 18, 5:20 AM)34% (Oct 9, 3:20 PM)29.77 "Hg (Oct 17, 5:20 AM)
Average56 °F89%29.95 "Hg
* Reported Oct 6 12:20 AM — Oct 21 12:20 AM, Ulm, Weather by CustomWeather, © 2014

Note: Actual official high and low records may vary slightly from our data, if they occured in-between our weather recording intervals... More about our weather records

Advertising

Ulm weather history for previous 24 hours

 ConditionsComfort  
Time TempWeatherWind HumidityBarometerVisibility
12:20 AM
Oct 21
57 °FHeavy rain. Passing clouds.5 mph100%30.01 "Hg5 mi
11:20 PM
Oct 20
59 °FRain. Passing clouds.3 mph94%30.01 "HgN/A
10:20 PM59 °FRain showers. Partly cloudy.5 mph94%30.04 "Hg6 mi
9:20 PM59 °FLight rain. Passing clouds.1 mph100%30.04 "HgN/A
9:00 PM59 °FRain. Passing clouds.2 mph100%30.04 "HgN/A
8:20 PM61 °FPassing clouds.No wind94%30.04 "HgN/A
7:20 PM61 °FPartly sunny.2 mph94%30.07 "HgN/A
6:20 PM66 °FSprinkles. Broken clouds.3 mph78%30.04 "HgN/A
5:20 PM68 °FBroken clouds.6 mph73%30.07 "HgN/A
4:20 PM68 °FBroken clouds.9 mph69%30.07 "HgN/A
3:20 PM68 °FBroken clouds.12 mph69%30.07 "HgN/A
2:20 PM68 °FBroken clouds.10 mph69%30.09 "HgN/A
1:20 PM66 °FScattered clouds.10 mph73%30.12 "HgN/A
12:20 PM64 °FScattered clouds.9 mph73%30.15 "HgN/A
11:20 AM64 °FBroken clouds.9 mph73%30.15 "HgN/A
10:20 AM61 °FBroken clouds.8 mph77%30.15 "HgN/A
9:20 AM57 °FBroken clouds.5 mph82%30.18 "HgN/A
8:20 AM55 °FPartly cloudy.6 mph88%30.15 "HgN/A
7:20 AM55 °FPassing clouds.7 mph88%30.15 "HgN/A
5:20 AM57 °FPassing clouds.8 mph82%30.15 "HgN/A
4:20 AM57 °FPassing clouds.8 mph82%30.18 "HgN/A
3:20 AM57 °FPassing clouds.6 mph82%30.18 "HgN/A
2:20 AM57 °FPassing clouds.8 mph88%30.18 "HgN/A
1:20 AM57 °FPassing clouds.9 mph88%30.18 "HgN/A
Weather by CustomWeather, © 2014

See weather overviewHow to use our weather pages